Location: Nachod
(50.4170°N, 16.1670°E)
Time: 21:24:13
(UTC+01:00)

X-37B - Visible Passes

Search period start: 25 November 2020 00:00
Search period end: 05 December 2020 00:00
Orbit: 384 x 389 km, 45.0° (Epoch: 12 November)

Date Brightness Start Highest point End Pass type
(mag) Time Alt. Az. Time Alt. Az. Time Alt. Az.
28 Nov 3.1 18:11:27 10° SSW 18:12:32 14° S 18:12:32 14° S visible
29 Nov 3.1 17:14:08 10° S 17:15:11 11° SSE 17:16:14 10° SE visible
29 Nov 3.6 18:48:25 10° SW 18:48:55 13° SW 18:48:55 13° SW visible
30 Nov 2.4 17:50:15 10° SW 17:52:43 21° SSE 17:52:59 21° SSE visible
01 Dec 2.9 16:52:18 10° SSW 16:54:22 16° SSE 16:56:25 10° ESE visible
01 Dec 2.7 18:27:36 10° WSW 18:29:18 23° SSW 18:29:18 23° SSW visible
02 Dec 2.2 17:29:17 10° SW 17:32:00 26° S 17:33:20 19° SE visible
02 Dec 4.0 19:05:23 10° WSW 19:05:36 11° WSW 19:05:36 11° WSW visible
03 Dec 2.6 16:31:06 10° SW 16:33:35 21° SSE 16:36:05 10° ESE visible
03 Dec 2.0 18:06:53 10° WSW 18:09:39 30° S 18:09:39 30° S visible
04 Dec 2.1 17:08:28 10° WSW 17:11:18 29° S 17:13:43 12° ESE visible
04 Dec 3.3 18:44:48 10° WSW 18:46:00 18° SW 18:46:00 18° SW visible
